[[{"header":{"parameterUnit":"m.s-1","parameterCategory":1,"la1":30.2991,"la2":30.254,"lo1":-89.0895,"lo2":-89.0444,"dy":0.0017,"dx":0.0017,"nx":28,"ny":28,"refTime":"2024-08-29T03:00:00:Z","depth":0,"parameterNumber":2,"parameterNumberName":"U-component_of_WINDS"},"data":[0,0,0,0,0,0,0,0,0,0,0,0,0,0,0,0,0,0,0,0,0,0,0,0,0,0,0,0,0,0,0,0,0,0,0,0,0,0,0,0,0,0,0,0,0,0,0,0,0,0,0,0,0,0,0,0,0,0,-6.2542,-6.254,0,-6.2404,-6.2403,-6.2401,-6.2306,-6.2305,-6.2304,-6.2304,-6.2151,-6.2148,-6.2144,0,0,0,0,0,0,0,0,0,0,0,0,0,-6.2711,-6.2708,-6.2542,-6.254,-6.2539,-6.2405,-6.2403,-6.2401,-6.2306,-6.2305,-6.2304,-6.2303,-6.2152,-6.2148,-6.2144,0,0,0,0,0,0,0,0,0,0,0,0,0,-6.2611,-6.2707,-6.2542,-6.2475,-6.2468,-6.2405,-6.2403,-6.24,-6.2306,-6.2305,-6.2304,-6.2303,-6.2154,-6.2149,-6.2144,-6.2133,0,0,-6.2128,-6.2126,0,0,0,0,0,0,0,0,-6.2617,-6.2605,-6.2487,-6.248,-6.2472,-6.2371,-6.2406,-6.231,-6.2306,-6.2367,-6.2304,-6.2302,-6.2224,-6.2213,-6.219,-6.2126,-6.2119,-6.2127,-6.2124,-6.2122,-6.2121,0,0,0,0,0,0,0,-6.2624,-6.2611,-6.2487,-6.2485,-6.2476,-6.2448,-6.2433,-6.2388,-6.2303,-6.2362,-6.2355,-6.234,-6.222,-6.2195,-6.2185,-6.2117,-6.2128,-6.2123,-6.212,-6.2118,-6.2032,-6.2033,0,0,0,0,0,0,-6.2643,-6.2617,-6.2492,-6.2483,-6.2544,-6.2446,-6.2429,-6.2404,-6.2303,-6.2287,-6.2341,-6.2336,-6.2204,-6.2191,-6.218,-6.2157,-6.2122,-6.2117,-6.2114,-6.2031,-6.2032,-6.2033,0,0,0,0,0,0,-6.2647,-6.2633,-6.2497,-6.2548,-6.2529,-6.2444,-6.2417,-6.2402,-6.2377,-6.2288,-6.2271,-6.2332,-6.2203,-6.2187,-6.2145,-6.2151,-6.2115,-6.211,-6.2031,-6.2032,-6.2033,-6.2115,0,0,0,0,0,0,-6.2652,-6.2635,-6.2633,-6.2549,-6.2527,-6.2469,-6.2418,-6.24,-6.237,-6.2362,-6.2275,-6.2259,-6.2201,-6.2153,-6.214,-6.2143,-6.2106,-6.203,-6.2031,-6.2032,-6.2111,-6.2119,-6.2125,0,0,0,0,0,-6.2659,-6.266,-6.2633,-6.2619,-6.2523,-6.247,-6.2456,-6.2393,-6.2371,-6.2366,-6.2308,-6.2262,-6.2153,-6.215,-6.2134,-6.2136,-6.2029,-6.2031,-6.2032,-6.2108,-6.2117,-6.2125,0,0,0,0,0,0,-6.2743,-6.2648,-6.2617,-6.2592,-6.254,-6.2454,-6.2446,-6.2405,-6.2355,-6.2349,-6.2269,-6.225,-6.2215,-6.2171,-6.2169,-6.2117,-6.2085,-6.2084,-6.2148,-6.2155,-6.2162,-6.2172,-6.2102,0,0,0,0,0,-6.276,-6.2728,-6.2645,-6.263,-6.2606,-6.2531,-6.2505,-6.2461,-6.2402,-6.2379,-6.2318,-6.2259,-6.2211,-6.2181,-6.2133,-6.2105,-6.2082,-6.2098,-6.2105,-6.2111,-6.211,-6.2087,-6.2092,-6.2039,-6.2039,-6.2039,0,0,-6.2791,-6.2735,-6.272,-6.2646,-6.26,-6.2565,-6.2513,-6.2479,-6.245,-6.2372,-6.2329,-6.2283,-6.2211,-6.2176,-6.2157,-6.2138,-6.212,-6.2113,-6.2119,-6.2114,-6.209,-6.2095,-6.2099,-6.204,-6.204,-6.204,0,0,-6.2831,-6.2788,-6.2769,-6.2726,-6.2659,-6.2608,-6.2604,-6.2524,-6.2491,-6.2448,-6.2387,-6.235,-6.2271,-6.2222,-6.2187,-6.2207,-6.2161,-6.2193,-6.2228,-6.2208,-6.2212,-6.2215,-6.2218,-6.2221,-6.2193,-6.2193,-6.2193,0,-6.2878,-6.2827,-6.2764,-6.2734,-6.2701,-6.2632,-6.261,-6.2569,-6.2489,-6.2465,-6.2447,-6.2344,-6.2291,-6.2241,-6.2247,-6.2222,-6.221,-6.2202,-6.2217,-6.222,-6.2221,-6.2224,-6.2226,-6.2197,-6.2197,-6.2196,-6.2196,0,-6.2886,-6.2851,-6.2844,-6.2771,-6.2738,-6.2712,-6.2641,-6.2614,-6.2572,-6.2523,-6.2477,-6.2412,-6.2347,-6.2332,-6.229,-6.2275,-6.2265,-6.2233,-6.2198,-6.2232,-6.2232,-6.2233,-6.2203,-6.2202,-6.22,-6.2199,0,0,-6.2973,-6.2867,-6.2865,-6.283,-6.2751,-6.2721,-6.269,-6.263,-6.2607,-6.2553,-6.2522,-6.2456,-6.2425,-6.2385,-6.2336,-6.2319,-6.2334,-6.2287,-6.2284,-6.2296,-6.2309,-6.2332,-6.2335,-6.2305,-6.2305,-6.2305,-6.2314,0,-6.2998,-6.2944,-6.2885,-6.2849,-6.2813,-6.2748,-6.272,-6.2666,-6.2619,-6.2578,-6.2524,-6.2477,-6.2442,-6.2417,-6.2397,-6.2337,-6.2335,-6.2336,-6.2269,-6.2268,-6.2287,-6.2335,-6.236,-6.2372,-6.2314,-6.2314,-6.2314,0,-6.302,-6.2973,-6.2934,-6.2857,-6.2839,-6.2816,-6.2756,-6.272,-6.2656,-6.2622,-6.2578,-6.2527,-6.2485,-6.2458,-6.2397,-6.2399,-6.2368,-6.2334,-6.2332,-6.2321,-6.2291,-6.2322,-6.2375,-6.2375,-6.2314,-6.2314,-6.2314,0,-6.3083,-6.3009,-6.2976,-6.2949,-6.2859,-6.2843,-6.2804,-6.274,-6.2707,-6.2653,-6.2629,-6.257,-6.2537,-6.249,-6.2422,-6.2408,-6.2367,-6.2334,-6.2333,-6.2335,-6.2325,-6.2326,-6.237,-6.2311,-6.2311,-6.2311,-6.2311,0,-6.3115,-6.3092,-6.3003,-6.2982,-6.2954,-6.2886,-6.2859,-6.2813,-6.2756,-6.2721,-6.266,-6.2628,-6.2542,-6.2498,-6.2445,-6.24,-6.2386,-6.2354,-6.2339,-6.2358,-6.2362,-6.2335,-6.2331,-6.2311,-6.2311,-6.2311,-6.2311,0,-6.3179,-6.3119,-6.3078,-6.2997,-6.2976,-6.2959,-6.2887,-6.2861,-6.2812,-6.2768,-6.2754,-6.2674,-6.2619,-6.2548,-6.2469,-6.2433,-6.2393,-6.2373,-6.2417,-6.2407,-6.241,-6.2409,-6.2436,-6.2434,-6.238,-6.238,-6.2381,0,-6.3202,-6.3184,-6.3102,-6.3077,-6.3041,-6.3001,-6.2968,-6.2899,-6.2867,-6.2792,-6.2774,-6.2716,-6.2665,-6.258,-6.2511,-6.245,-6.2425,-6.2438,-6.2415,-6.2433,-6.2421,-6.2422,-6.2417,-6.2443,-6.2444,-6.2445,-6.2446,0,-6.3248,-6.3219,-6.3177,-6.3123,-6.3087,-6.304,-6.299,-6.2972,-6.2892,-6.2858,-6.2803,-6.2765,-6.2686,-6.2627,-6.2557,-6.251,-6.2463,-6.2454,-6.245,-6.2467,-6.2492,-6.2475,-6.2429,-6.2453,-6.2452,-6.2452,-6.2451,-6.2451,-6.3289,-6.3269,-6.3209,-6.3162,-6.3119,-6.3074,-6.3046,-6.2994,-6.2949,-6.2882,-6.2844,-6.279,-6.2722,-6.2624,-6.258,-6.2533,-6.2515,-6.251,-6.2508,-6.2507,-6.2512,-6.2503,-6.252,-6.252,-6.2519,-6.2519,-6.2519,0,-6.3328,-6.3287,-6.3246,-6.318,-6.3143,-6.3107,-6.305,-6.3019,-6.2974,-6.2918,-6.287,-6.2806,-6.2748,-6.2676,-6.2611,-6.2587,-6.2563,-6.2572,-6.2571,-6.2561,-6.2533,-6.2542,-6.2592,-6.2592,-6.2592,-6.2592,-6.2592,-6.2592,-6.3345,-6.3308,-6.3272,-6.3212,-6.3169,-6.312,-6.3089,-6.3046,-6.3,-6.2933,-6.2886,-6.2842,-6.2777,-6.2707,-6.2651,-6.263,-6.2608,-6.2623,-6.2595,-6.257,-6.2563,-6.2557,-6.2564,-6.2619,-6.2619,-6.2626,-6.2627,-6.2627]},{"header":{"parameterUnit":"m.s-1","parameterCategory":1,"la1":30.2991,"la2":30.254,"lo1":-89.0895,"lo2":-89.0444,"dy":0.0017,"dx":0.0017,"nx":28,"ny":28,"refTime":"2024-08-29T03:00:00:Z","depth":0,"parameterNumber":3,"parameterNumberName":"V-component_of_WINDS"},"data":[0,0,0,0,0,0,0,0,0,0,0,0,0,0,0,0,0,0,0,0,0,0,0,0,0,0,0,0,0,0,0,0,0,0,0,0,0,0,0,0,0,0,0,0,0,0,0,0,0,0,0,0,0,0,0,0,0,0,2.9775,2.9775,0,2.9756,2.9755,2.9755,2.9783,2.9784,2.9785,2.9785,2.976,2.9759,2.9757,0,0,0,0,0,0,0,0,0,0,0,0,0,2.9832,2.9831,2.9775,2.9775,2.9775,2.9756,2.9755,2.9755,2.9782,2.9784,2.9785,2.9786,2.9761,2.9759,2.9757,0,0,0,0,0,0,0,0,0,0,0,0,0,2.9809,2.983,2.9775,2.9786,2.9787,2.9756,2.9755,2.9755,2.9782,2.9784,2.9785,2.9787,2.9761,2.9759,2.9757,2.9712,0,0,2.9749,2.9748,0,0,0,0,0,0,0,0,2.981,2.9807,2.9785,2.9785,2.9786,2.9773,2.9766,2.9741,2.9782,2.9784,2.9786,2.9787,2.9763,2.9761,2.9754,2.9711,2.971,2.9749,2.9748,2.9747,2.9746,0,0,0,0,0,0,0,2.9812,2.9808,2.9767,2.9784,2.9785,2.9791,2.9789,2.9762,2.9765,2.9784,2.9786,2.9783,2.9764,2.9756,2.9753,2.971,2.9749,2.9747,2.9746,2.9745,2.9631,2.963,0,0,0,0,0,0,2.9813,2.9809,2.9768,2.9767,2.9802,2.9788,2.9787,2.9776,2.9766,2.9766,2.9782,2.9785,2.9759,2.9756,2.9752,2.97,2.9747,2.9745,2.9743,2.9633,2.9631,2.9629,0,0,0,0,0,0,2.9814,2.9809,2.9769,2.9789,2.9784,2.9786,2.9773,2.9775,2.9767,2.9764,2.9765,2.9774,2.976,2.9756,2.9723,2.97,2.9744,2.9741,2.9635,2.9632,2.963,2.9596,0,0,0,0,0,0,2.9816,2.9809,2.9793,2.9788,2.9783,2.974,2.9772,2.9773,2.9763,2.9766,2.9757,2.9756,2.9761,2.9726,2.972,2.9697,2.9739,2.9637,2.9634,2.9631,2.9599,2.9592,2.9587,0,0,0,0,0,2.9817,2.9783,2.9792,2.9787,2.9763,2.9739,2.9736,2.9743,2.9761,2.9745,2.9743,2.9757,2.9704,2.9723,2.9716,2.9692,2.9638,2.9635,2.9631,2.9601,2.9594,2.9587,0,0,0,0,0,0,2.9783,2.9782,2.9793,2.9756,2.9747,2.9744,2.9723,2.9735,2.972,2.9723,2.9732,2.9729,2.9695,2.969,2.9711,2.9649,2.9674,2.9669,2.9653,2.9646,2.964,2.9641,2.9737,0,0,0,0,0,2.9771,2.9753,2.9753,2.9721,2.9716,2.972,2.971,2.9717,2.9708,2.9704,2.9701,2.969,2.9671,2.9658,2.9641,2.9599,2.9597,2.9579,2.9573,2.9568,2.9564,2.9542,2.9534,2.9618,2.9618,2.9618,0,0,2.9746,2.9744,2.9732,2.9714,2.9708,2.9688,2.9717,2.9694,2.968,2.97,2.967,2.9667,2.9656,2.9618,2.9601,2.9613,2.9541,2.9564,2.956,2.9558,2.9537,2.9529,2.9522,2.9615,2.9616,2.9616,0,0,2.9691,2.9688,2.966,2.9655,2.9647,2.9651,2.9644,2.9639,2.9638,2.9608,2.9624,2.9606,2.9573,2.9565,2.9556,2.95,2.9512,2.9494,2.9462,2.9441,2.9434,2.9429,2.9409,2.9401,2.949,2.9489,2.9489,0,2.966,2.9633,2.9644,2.9622,2.9613,2.9633,2.9606,2.9599,2.9585,2.9578,2.9593,2.9553,2.9547,2.9508,2.9495,2.9487,2.948,2.9495,2.9435,2.9429,2.9424,2.9405,2.9397,2.9487,2.9488,2.9488,2.9488,0,2.9596,2.9576,2.9555,2.9544,2.9533,2.9507,2.9514,2.9502,2.951,2.9512,2.9481,2.9475,2.9457,2.9448,2.9455,2.9411,2.9419,2.9434,2.9458,2.9414,2.9396,2.9389,2.9484,2.9485,2.9486,2.9486,0,0,2.9516,2.9513,2.9505,2.9501,2.9494,2.9479,2.9455,2.9439,2.9428,2.9418,2.9398,2.9371,2.9385,2.9376,2.9382,2.9363,2.932,2.9381,2.9381,2.937,2.9271,2.9259,2.9251,2.9328,2.9327,2.9326,2.9272,0,2.9461,2.9421,2.9431,2.939,2.9373,2.9393,2.9371,2.9365,2.9366,2.935,2.9351,2.9332,2.9352,2.9347,2.933,2.9329,2.93,2.9333,2.9308,2.9307,2.931,2.9242,2.9229,2.9178,2.9265,2.9264,2.9263,0,2.9391,2.9381,2.9339,2.9337,2.933,2.9311,2.9298,2.9283,2.9276,2.9278,2.9269,2.928,2.9255,2.9281,2.9247,2.9269,2.9259,2.9258,2.9256,2.9253,2.9282,2.9237,2.9162,2.9155,2.9252,2.9253,2.9254,0,2.9337,2.9313,2.9285,2.9281,2.9277,2.9264,2.9261,2.9256,2.9247,2.9235,2.9229,2.9214,2.9206,2.9194,2.92,2.9219,2.9165,2.9191,2.9166,2.9165,2.9152,2.9153,2.9075,2.9147,2.9147,2.9147,2.9148,0,2.9274,2.9248,2.9261,2.9244,2.9215,2.9227,2.9198,2.9198,2.9193,2.9176,2.9192,2.9174,2.9184,2.9168,2.9172,2.9144,2.9139,2.914,2.9141,2.9138,2.9138,2.9132,2.9135,2.9145,2.9146,2.9146,2.9147,0,2.9209,2.9217,2.9188,2.9188,2.9188,2.9166,2.9166,2.915,2.9153,2.9131,2.9126,2.9131,2.9113,2.9118,2.9098,2.9101,2.9065,2.9071,2.9067,2.9069,2.9043,2.9045,2.8958,2.8947,2.9026,2.9025,2.9025,0,2.9168,2.9148,2.9148,2.9138,2.9135,2.9119,2.911,2.9122,2.9112,2.9103,2.9088,2.9072,2.9059,2.9029,2.9029,2.9014,2.902,2.899,2.9017,2.9016,2.9019,2.9021,2.9019,2.8985,2.8984,2.8983,2.8982,0,2.9095,2.91,2.9087,2.9076,2.9066,2.9057,2.905,2.9041,2.9052,2.904,2.9022,2.9013,2.8994,2.8977,2.8964,2.896,2.8973,2.8974,2.8967,2.8964,2.8963,2.8963,2.9052,2.8976,2.8976,2.8977,2.8977,2.8977,2.904,2.9024,2.9021,2.9007,2.9003,2.8997,2.8982,2.8984,2.8971,2.8957,2.8964,2.8944,2.8939,2.8922,2.8918,2.8902,2.8913,2.8903,2.89,2.8898,2.8895,2.8966,2.8899,2.8899,2.8899,2.89,2.89,0,2.8967,2.8967,2.8954,2.8945,2.8933,2.8949,2.8942,2.8931,2.8914,2.8908,2.8896,2.8877,2.8861,2.8862,2.8848,2.8835,2.884,2.883,2.8831,2.883,2.8885,2.8892,2.8826,2.8826,2.8826,2.8826,2.8826,2.8826,2.8928,2.8902,2.8908,2.888,2.888,2.8862,2.8857,2.885,2.8846,2.8824,2.8812,2.8814,2.8811,2.8797,2.8783,2.8784,2.8777,2.8766,2.8768,2.8819,2.8826,2.8833,2.884,2.8764,2.8764,2.8715,2.8714,2.8714]}]]